Regional Weather Roundup
Issued by NWS Midland/Odessa, TX

Home | Current Version | Previous Version | Text Only | Print | Product List | Glossary On
Versions: 1 2 3 4 5 6 7 8 9 10 11 12 13 14 15 16 17 18 19 20 21 22 23 24 25 26 27 28 29 30 31 32 33 34 35 36 37 38 39 40 41 42 43 44 45 46 47 48 49 50
000
ASUS44 KMAF 300110
RWRMAF
MIDLAND AREA WEATHER ROUNDUP
NATIONAL WEATHER SERVICE MIDLAND TX
800 PM CDT FRI MAY 29 2015

...IN SOUTHWEST TEXAS AND SOUTHEAST NEW MEXICO...

CITY           SKY/WX    TMP DP  RH WIND       PRES   REMARKS
ALPINE         PTCLDY    82  53  37 NE10      30.08S
ANDREWS        FAIR      80  62  53 E8G22     29.98R
ARTESIA        PTSUNNY   90  41  18 E5        29.95R
BIG SPRING     CLEAR     83  66  56 E12       29.97S
CARLSBAD       SUNNY     88  51  28 E10       29.92S
DRYDEN           N/A     83  69  62 VRB5      29.95R
FORT STOCKTON  PTCLDY    83  59  44 E8        29.94S
GUAD PASS      MOSUNNY   76  44  32 E22       30.08S
HOBBS          CLEAR     81  59  47 SE14      29.98S
MARFA          PTCLDY    81  50  34 E18       30.06S
MIDLAND AIRPK  CLEAR     84  61  46 SE9       29.96S
MIDLAND INTL   CLEAR     83  62  49 SE12      29.95S
ODESSA         CLEAR     82  61  48 SE9       29.96S
PECOS          CLEAR     85  58  40 CALM      29.91R
PRESIDIO       FAIR      98  29   9 W5        29.84S
SEMINOLE       CLEAR     81  60  48 SE9       29.99R
SNYDER         CLEAR     80  67  62 E6        29.97R
WINK           CLEAR     86  61  42 SE13      29.91R
$$
...OTHER STATIONS IN TEXAS...

CITY           SKY/WX    TMP DP  RH WIND       PRES   REMARKS
ABILENE        PTCLDY    83  69  62 SE7       29.94R
AMARILLO       MOCLDY    71  56  58 NE10      30.07R
AUSTIN         PTCLDY    81  70  69 S8        29.93R
BROWNSVILLE    PTCLDY    81  75  82 SE10      29.92R
CORPUS CHRISTI PTCLDY    81  72  74 SE14      29.93R
DALLAS FTW     MOCLDY    74  66  76 S3        29.94R
DEL RIO        CLOUDY    83  70  64 SE10      29.89R
EL PASO        MOSUNNY   92  19   7 W12G22    29.93S
HOUSTON INT    PTCLDY    84  66  54 S6        29.94S
LUBBOCK        PTCLDY    77  60  55 E9        30.00R
SAN ANGELO     CLEAR     83  68  60 S5        29.93R
SAN ANTONIO    PTCLDY    84  69  60 SE10      29.93R
WACO           PTCLDY    82  67  60 S6        29.92R
WICHITA FALLS  NOT AVBL
$$
...OTHER LOCATIONS IN NEW MEXICO...

CITY           SKY/WX    TMP DP  RH WIND       PRES   REMARKS
ALAMAGORDO     MOSUNNY   90  18   7 W3        29.96F
ALBUQUERQUE    PTSUNNY   77  31  18 NW18G26   30.11R
CANNON AFB     TSTM      55  49  81 NE9       30.04F
CLOVIS         CLOUDY    55  48  76 W26G48      N/A  THUNDER
HOLLOMAN AFB   MOSUNNY   90  16   6 NW5       29.94S
ROSWELL        PTSUNNY   87  39  18 NW8       29.96R
RUIDOSO        PTSUNNY   73  32  21 MISG      30.20R
SANTA FE       MOSUNNY   75  18  11 W20G29    30.13R
TRUTH OR CONSE PTSUNNY   86  20   9 NW10G17   30.00R
TUCUMCARI      CLOUDY    63  52  67 NE9       30.07R
$$



USA.gov is the U.S. government's official web portal to all federal, state and local government web resources and services.